Regional Weather Roundup
Issued by NWS

Home | Current Version | Previous Version | Graphics & Text | Print | Product List | Glossary On
Versions: 1 2 3 4 5 6 7 8 9 10 11 12 13 14 15 16 17 18 19 20 21 22 23 24 25 26 27 28 29 30 31 32 33 34 35 36 37 38 39 40 41 42 43 44 45 46 47 48 49 50
000
ASUS43 KIND 220909
RWRIN

WEATHER ROUNDUP FOR INDIANA
NATIONAL WEATHER SERVICE INDIANAPOLIS IN
500 AM EDT FRI AUG 22 2014

NOTE: "FAIR" INDICATES FEW OR NO CLOUDS BELOW 12,000 FEET WITH NO
SIGNIFICANT WEATHER AND/OR OBSTRUCTIONS TO VISIBILITY.

* - STATION DOES NOT REPORT WEATHER SUCH AS PRECIPITATION OR FOG.

+ - STATION NOT QUALITY CONTROLLED BY THE NATIONAL WEATHER SERVICE.
    USE DATA WITH CAUTION...ESPECIALLY DEWPOINT AND RELATIVE
    HUMIDITY OBSERVATIONS.

INZ001>003-010>013-019-020-221000-
NORTHWEST INDIANA

CITY           SKY/WX    TMP DP  RH WIND       PRES   REMARKS
GARY /AIRPORT/ RAIN      73  72  95 SE5       29.93S
KNOX *+        CLOUDY    70  68  92 CALM      29.91F
LA PORTE +     RAIN      70  70 100 SW3       29.94F
MICHIGAN CITY+ RAIN      72  72 100 SW7       29.92F
MONTICELLO +   RAIN      74  73  99 CALM      29.91R
RENSSELAER +   TSTM      72  72 100 NE15G22   29.92F
VALPARAISO     LGT RAIN  72  70  93 CALM      29.94F

$$

LMZ046-743>745-221000-
SOUTHERN LAKE MICHIGAN

STATION/POSITION TIME  TEMP WIND        PRES
                       AIR  DIR/SP/G
                 (UTC) (F)  (DEG/KT/KT) (MB)
MICHIGAN CITY    0900   73  160/ 10/ 13   N/A

$$

INZ004-005-014>016-021>024-221000-
NORTH CENTRAL INDIANA

CITY           SKY/WX    TMP DP  RH WIND       PRES   REMARKS
GOSHEN         RAIN      73  70  90 S7        29.94R FOG
LOGANSPORT +   LGT RAIN  70  68  94 SE3       29.94R
PERU/GRISSOM   DRIZZLE   72  72 100 SE6       29.93F
ROCHESTER +    TSTM      73  73 100 N3        29.95S
SOUTH BEND     CLOUDY    73  69  87 SW10      29.94R

$$

INZ006>009-017-018-025>027-221000-
NORTHEAST INDIANA

CITY           SKY/WX    TMP DP  RH WIND       PRES   REMARKS
ANGOLA *+      PTCLDY    68  59  73 CALM      29.97R
AUBURN +       CLOUDY    68  66  94 CALM      29.98R
FORT WAYNE     TSTM      68  68 100 CALM      30.00R VSB 1
HUNTINGTON +   TSTM      72  72  99 NE8       29.97R

$$

INZ028-029-035-036-043>045-051>053-221000-
WEST CENTRAL INDIANA

CITY           SKY/WX    TMP DP  RH WIND       PRES   REMARKS
GREENCASTLE +  PTCLDY    73  72  94 CALM      29.96R
LAFAYETTE      LGT RAIN  76  74  93 SW5       29.90S
TERRE HAUTE    CLEAR     76  72  87 SW7       29.94S

$$

INZ030>032-037>040-046>048-054>057-064-065-221000-
CENTRAL INDIANA

CITY           SKY/WX    TMP DP  RH WIND       PRES   REMARKS
CP ATTERBURY + PTCLDY    72  70  94 CALM      29.96F FOG
FRANKFORT +    CLOUDY   N/A N/A N/A S3        29.94S
INDIANAPOLIS   MOCLDY    75  72  90 SW10      29.94F
-EAGLE CREEK   MOCLDY    75  72  90 SW5       29.94F
KOKOMO *+      CLOUDY    72  70  94 SE5       29.94R
MARION +       LGT RAIN  70  68  92 S5        29.96S
MT COMFORT *+  MOCLDY    72 N/A N/A S6        29.96S
SHELBYVILLE    MOCLDY    76 N/A N/A S8        29.96F
ZIONSVILLE +   CLOUDY    74  71  89 S6        29.95F

$$

INZ033-034-041-042-049-050-058-059-221000-
EAST CENTRAL INDIANA

CITY           SKY/WX    TMP DP  RH WIND       PRES   REMARKS
MUNCIE         LGT RAIN  72  69  90 NE8       29.98F

$$

INZ060-061-067>069-081>083-085>088-221000-
SOUTHWEST INDIANA

CITY           SKY/WX    TMP DP  RH WIND       PRES   REMARKS
EVANSVILLE     PTCLDY    77  72  84 SW8       29.97F
WASHINGTON +   CLEAR     76  74  91 SW7       29.95S

$$

INZ062-063-066-070>080-084-089>092-221000-
SOUTH CENTRAL AND SOUTHEAST INDIANA

CITY           SKY/WX    TMP DP  RH WIND       PRES   REMARKS
BLOOMINGTON    CLEAR     76  72  87 SW7       29.97S

$$




USA.gov is the U.S. government's official web portal to all federal, state and local government web resources and services.